Weather in Kuvasay

Uzbekistan     40°17′46″N   71°58′57″E
temp.,
°C
wind,
m/s
gust,
m/s
humid.,
%
clouds,
%
prec.,
mm/h
press.,
hPa
HPBL,
m
14 april, wed
wed1400:00+12sse456086 0.3 1022180
03:00+11s116149 0.0 102011
06:00+10ese116934 0.0 102010
09:00+13n1255100 0.0 1019358
12:00+16n2248100 0.0 10171084
15:00+19n223997 0.0 10151359
18:00+19ne2237100 0.0 10131078
21:00+15ene115014 0.0 101311
15 april, thu
thu1500:00+14ssw115253 0.0 101311
03:00+13s1150100 0.0 101211
06:00+13s1150100 0.0 101311
09:00+16wnw2246100 0.0 1015273
12:00+18nw2242100 0.0 1014983
15:00+21nw3234100 0.0 10131674
18:00+21w2232100 0.0 10121768
21:00+18w004199 0.0 101311
16 april, fri
fri1600:00+15se114396 0.0 101311
03:00+15e2245100 0.0 101211
06:00+14ese2247100 0.0 101413
09:00+18ene2236100 0.0 1014335
12:00+21n31306 0.0 10141581
15:00+22nw3227100 0.0 10132090
18:00+22nw332614 0.0 10132106
21:00+18ssw113411 0.0 101411
17 april, sat
sat1700:00+17ese223618 0.0 101412
03:00+15ese3340100 0.0 101432
06:00+15ese3340100 0.0 101237
09:00+18ne233099 0.0 1014404
12:00+20nnw3226100 0.0 10131283
15:00+22nw3223100 0.0 10112063
18:00+21nw3223100 0.0 10111526
21:00+18wsw3433100 0.0 1013112
18 april, sun
sun1800:00+17sse2242100 0.0 101469
03:00+16nne0145100 0.0 101421
06:00+15se2347100 0.1 1016101
09:00+15nw664595 0.1 10191014
12:00+16ssw5838100 0.4 10191494
15:00+18ssw6728100 0.1 10181837
18:00+13s8847100 0.5 1019350
21:00+13s7849100 0.3 1020358